TimeCDT,TemperatureF,Dew PointF,Humidity,Sea Level PressureIn,VisibilityMPH,Wind Direction,Wind SpeedMPH,Gust SpeedMPH,PrecipitationIn,Events,Conditions,WindDirDegrees,DateUTC
12:15 AM,79.3,70.9,75,29.92,10.0,SSE,8.1,-,N/A,,Clear,150,2013-07-09 05:15:00
12:35 AM,80.6,69.8,70,29.92,10.0,SSE,9.2,-,N/A,,Clear,160,2013-07-09 05:35:00
12:55 AM,80.6,69.3,68,29.92,10.0,South,10.4,-,N/A,,Clear,170,2013-07-09 05:55:00
1:15 AM,80.8,68.9,67,29.92,10.0,South,13.8,-,N/A,,Clear,180,2013-07-09 06:15:00
1:35 AM,80.6,68.5,67,29.92,10.0,South,11.5,18.4,N/A,,Clear,180,2013-07-09 06:35:00
1:55 AM,80.4,68.4,67,29.95,10.0,SW,11.5,-,N/A,Thunderstorm,Thunderstorm,230,2013-07-09 06:55:00
2:15 AM,76.5,68.2,75,29.95,4.0,SSW,13.8,35.7,0.12,Rain-Thunderstorm,Heavy Thunderstorms and Rain,210,2013-07-09 07:15:00
2:35 AM,76.5,68.0,75,29.93,10.0,SSE,5.8,9.2,0.16,Rain-Thunderstorm,Light Thunderstorms and Rain,150,2013-07-09 07:35:00
2:55 AM,76.5,68.9,77,29.95,10.0,Calm,Calm,-,0.16,Rain-Thunderstorm,Light Thunderstorms and Rain,0,2013-07-09 07:55:00
3:15 AM,75.4,69.3,81,29.94,10.0,NNE,9.2,-,N/A,,Overcast,30,2013-07-09 08:15:00
3:35 AM,73.4,68.9,86,29.94,10.0,ENE,6.9,-,N/A,,Mostly Cloudy,60,2013-07-09 08:35:00
3:55 AM,73.6,69.1,86,29.93,10.0,ENE,4.6,-,N/A,,Scattered Clouds,70,2013-07-09 08:55:00
4:15 AM,73.6,68.9,85,29.91,10.0,East,9.2,-,N/A,,Clear,90,2013-07-09 09:15:00
4:35 AM,73.9,68.9,84,29.91,10.0,East,5.8,-,N/A,,Clear,100,2013-07-09 09:35:00
4:55 AM,74.5,68.9,83,29.91,10.0,East,6.9,-,N/A,,Clear,80,2013-07-09 09:55:00
5:15 AM,74.3,69.1,84,29.90,10.0,East,6.9,-,N/A,,Clear,100,2013-07-09 10:15:00
5:35 AM,73.6,69.3,86,29.88,10.0,East,8.1,-,N/A,,Clear,90,2013-07-09 10:35:00
5:55 AM,73.4,69.4,87,29.88,10.0,ESE,8.1,-,N/A,,Clear,110,2013-07-09 10:55:00
6:15 AM,74.3,69.3,84,29.90,10.0,SSE,5.8,-,N/A,,Scattered Clouds,150,2013-07-09 11:15:00
6:35 AM,74.3,69.3,84,29.91,10.0,SSE,5.8,-,N/A,,Scattered Clouds,160,2013-07-09 11:35:00
6:55 AM,74.3,68.9,83,29.90,10.0,SSE,9.2,-,0.02,,Mostly Cloudy,160,2013-07-09 11:55:00
7:15 AM,74.5,68.5,82,29.91,10.0,SSE,8.1,-,N/A,Thunderstorm,Scattered Clouds,160,2013-07-09 12:15:00
7:35 AM,74.5,69.3,84,29.93,10.0,Calm,Calm,-,N/A,,Clear,0,2013-07-09 12:35:00
7:55 AM,75.7,69.4,81,29.95,10.0,Calm,Calm,-,N/A,,Mostly Cloudy,0,2013-07-09 12:55:00
8:15 AM,75.2,70.5,85,29.96,10.0,NNE,4.6,-,N/A,,Mostly Cloudy,30,2013-07-09 13:15:00
8:35 AM,76.5,70.9,83,29.96,10.0,NNE,5.8,-,N/A,,Scattered Clouds,30,2013-07-09 13:35:00
8:55 AM,78.1,71.2,79,29.96,10.0,ENE,5.8,-,N/A,,Clear,70,2013-07-09 13:55:00
9:15 AM,79.2,71.6,78,29.95,10.0,ESE,6.9,-,N/A,,Clear,120,2013-07-09 14:15:00
9:35 AM,80.2,71.8,75,29.94,10.0,SE,8.1,-,N/A,,Clear,130,2013-07-09 14:35:00
9:55 AM,81.3,72.3,74,29.93,10.0,SE,5.8,-,N/A,,Clear,140,2013-07-09 14:55:00
10:15 AM,82.2,71.8,71,29.93,10.0,SSE,9.2,-,N/A,,Clear,150,2013-07-09 15:15:00
10:35 AM,82.8,71.2,68,29.92,10.0,South,10.4,-,N/A,,Clear,170,2013-07-09 15:35:00
10:55 AM,83.3,72.0,68,29.93,10.0,SSE,8.1,-,N/A,,Clear,160,2013-07-09 15:55:00
11:15 AM,84.2,71.2,65,29.93,10.0,SSE,8.1,-,N/A,,Clear,160,2013-07-09 16:15:00
11:35 AM,85.1,71.2,63,29.93,10.0,South,10.4,-,N/A,,Clear,170,2013-07-09 16:35:00
11:55 AM,86.0,72.3,64,29.92,10.0,South,11.5,16.1,N/A,,Clear,190,2013-07-09 16:55:00
12:15 PM,86.5,72.5,63,29.92,10.0,South,8.1,-,N/A,,Clear,180,2013-07-09 17:15:00
12:35 PM,87.1,72.7,62,29.92,10.0,SSW,6.9,-,N/A,,Clear,200,2013-07-09 17:35:00
12:55 PM,87.6,73.4,63,29.92,10.0,SW,8.1,-,N/A,,Clear,220,2013-07-09 17:55:00
1:15 PM,87.8,73.8,63,29.91,10.0,SSW,9.2,-,N/A,,Clear,200,2013-07-09 18:15:00
1:35 PM,88.5,73.6,61,29.91,10.0,SSW,8.1,-,N/A,,Clear,200,2013-07-09 18:35:00
1:55 PM,88.7,72.0,58,29.91,10.0,WSW,8.1,-,N/A,,Clear,240,2013-07-09 18:55:00
2:15 PM,89.1,73.0,59,29.91,10.0,WSW,4.6,-,N/A,,Clear,240,2013-07-09 19:15:00
2:35 PM,89.6,72.1,56,29.91,10.0,WSW,4.6,-,N/A,,Clear,240,2013-07-09 19:35:00
2:55 PM,89.8,72.0,56,29.91,10.0,WSW,3.5,-,N/A,,Clear,240,2013-07-09 19:55:00
3:15 PM,90.0,70.9,53,29.91,10.0,WNW,4.6,-,N/A,,Clear,300,2013-07-09 20:15:00
3:35 PM,90.9,72.3,54,29.91,10.0,SW,4.6,-,N/A,,Clear,220,2013-07-09 20:35:00
3:55 PM,91.2,71.2,52,29.91,10.0,WNW,4.6,-,N/A,,Clear,300,2013-07-09 20:55:00
4:15 PM,91.4,70.0,49,29.91,10.0,WNW,4.6,-,N/A,,Clear,300,2013-07-09 21:15:00
4:35 PM,91.4,70.3,50,29.91,10.0,WSW,3.5,-,N/A,,Clear,250,2013-07-09 21:35:00
4:55 PM,91.6,71.2,51,29.91,10.0,Calm,Calm,-,N/A,,Clear,0,2013-07-09 21:55:00
5:15 PM,91.8,69.3,48,29.91,10.0,North,5.8,-,N/A,,Clear,10,2013-07-09 22:15:00
5:35 PM,91.9,69.3,47,29.92,10.0,North,4.6,-,N/A,,Clear,350,2013-07-09 22:35:00
5:55 PM,91.8,70.3,49,29.91,10.0,North,4.6,-,N/A,,Clear,350,2013-07-09 22:55:00
6:15 PM,91.4,70.5,50,29.91,10.0,North,8.1,-,N/A,,Scattered Clouds,350,2013-07-09 23:15:00
6:35 PM,90.5,71.2,53,29.91,10.0,NNW,5.8,-,N/A,,Clear,340,2013-07-09 23:35:00
6:55 PM,90.3,70.9,53,29.91,10.0,North,8.1,-,N/A,,Clear,350,2013-07-09 23:55:00
7:15 PM,89.8,70.7,53,29.91,10.0,North,5.8,-,N/A,,Clear,10,2013-07-10 00:15:00
7:35 PM,88.7,71.8,57,29.92,10.0,North,11.5,-,N/A,,Clear,360,2013-07-10 00:35:00
7:55 PM,86.9,73.2,64,29.92,10.0,North,8.1,-,N/A,,Clear,10,2013-07-10 00:55:00
8:15 PM,85.5,72.1,64,29.92,10.0,North,9.2,-,N/A,,Clear,360,2013-07-10 01:15:00
8:35 PM,84.4,72.0,66,29.93,10.0,North,9.2,-,N/A,,Clear,360,2013-07-10 01:35:00
8:55 PM,83.5,71.6,67,29.93,10.0,North,8.1,-,N/A,,Clear,360,2013-07-10 01:55:00
9:15 PM,83.1,71.6,68,29.95,10.0,North,8.1,-,N/A,,Clear,350,2013-07-10 02:15:00
9:35 PM,82.4,71.6,70,29.95,10.0,North,6.9,-,N/A,,Clear,360,2013-07-10 02:35:00
9:55 PM,81.7,71.1,70,29.95,10.0,North,8.1,-,N/A,,Clear,360,2013-07-10 02:55:00
10:15 PM,81.0,71.2,72,29.95,10.0,North,10.4,-,N/A,,Clear,350,2013-07-10 03:15:00
10:35 PM,80.4,70.9,73,29.96,10.0,North,11.5,-,N/A,,Clear,350,2013-07-10 03:35:00
10:55 PM,80.1,70.0,71,29.96,10.0,North,9.2,-,N/A,,Clear,350,2013-07-10 03:55:00
11:15 PM,79.2,69.8,73,29.97,10.0,North,10.4,-,N/A,,Clear,360,2013-07-10 04:15:00
11:35 PM,78.8,69.4,73,29.98,10.0,North,11.5,-,N/A,,Clear,350,2013-07-10 04:35:00
11:55 PM,78.4,68.9,72,29.98,10.0,North,12.7,-,N/A,,Scattered Clouds,360,2013-07-10 04:55:00